Flag for Bahrain Weather past 2 weeks in Riffa, Bahrain

Now
68 °F

Clear.


Feels Like: 68 °F
Forecast: 61 / 68 °F
Wind: 17 mph from Northwest

Location: Bahrain International Airport

Current Time: Feb 1, 2015 at 6:41:30 PM

Latest Report: Feb 1, 2015 at 6:00 PM


Visibility: 10 mi

Pressure: 30.07 "Hg

Humidity: 60%

Dew point: 54 °F

Location of RiffaLocation

Historic Weather in Riffa — Graph

°F

Riffa temperature yesterday

Maximum temperature yesterday: 84 °F (at 2:00 PM)
Minimum temperature yesterday: 66 °F (at 7:00 AM)
Average temperature yesterday: 72 °F

Past Weeks' High & Low Weather Summary

 TemperatureHumidityPressure
High84 °F (Jan 31, 2:00 PM)94% (Jan 26, 3:00 AM)30.27 "Hg (Jan 26, 3:00 AM)
Low54 °F (Jan 24, 4:00 AM)16% (Jan 31, 2:00 PM)29.95 "Hg (Jan 28, 3:00 PM)
Average64 °F67%30.11 "Hg
* Reported Jan 17 5:00 PM — Feb 1 5:00 PM, Riffa, Weather by CustomWeather, © 2014

Note: Actual official high and low records may vary slightly from our data, if they occured in-between our weather recording intervals... More about our weather records

Advertising

Riffa weather history for previous 24 hours

 ConditionsComfort  
Time TempWeatherWind HumidityBarometerVisibility
5:00 PM
Feb 1
68 °FSunny.21 mph64%30.04 "Hg10 mi
4:00 PM70 °FSunny.20 mph60%30.04 "Hg10 mi
3:00 PM72 °FSunny.22 mph61%30.04 "Hg10 mi
2:00 PM72 °FSunny.20 mph57%30.04 "Hg10 mi
1:00 PM73 °FSunny.21 mph53%30.07 "Hg10 mi
12:00 PM72 °FSunny.23 mph61%30.07 "Hg10 mi
11:00 AM72 °FSunny.21 mph61%30.09 "Hg10 mi
10:00 AM72 °FSunny.21 mph65%30.12 "Hg10 mi
9:00 AM70 °FSunny.17 mph73%30.09 "Hg10 mi
8:00 AM70 °FSunny.15 mph73%30.09 "Hg6 mi
7:00 AM68 °FSunny.13 mph78%30.07 "Hg4 mi
6:00 AM68 °FClear.13 mph83%30.04 "Hg4 mi
5:00 AM68 °FClear.12 mph88%30.04 "Hg4 mi
4:00 AM68 °FPassing clouds.15 mph88%30.04 "Hg4 mi
3:00 AM68 °FPassing clouds.18 mph88%30.04 "Hg4 mi
2:00 AM68 °FFog.18 mph94%30.04 "Hg2 mi
1:00 AM68 °FFog.13 mph94%30.04 "Hg2 mi
12:00 AM68 °FFog.12 mph94%30.04 "Hg2 mi
11:00 PM
Jan 31
68 °FFog.14 mph94%30.04 "Hg0 mi
10:00 PM68 °FClear.10 mph88%30.04 "Hg4 mi
9:00 PM68 °FClear.12 mph88%30.04 "Hg4 mi
8:00 PM68 °FClear.12 mph88%30.01 "Hg4 mi
7:00 PM68 °FClear.9 mph83%30.01 "Hg5 mi
6:00 PM70 °FClear.8 mph69%29.98 "Hg10 mi
Weather by CustomWeather, © 2014

See weather overviewHow to use our weather pages